CAPE
365 427 453 474 533 652 740 809 832 732 755 969 1138 1651 1787 1957 1858 1826 1592 1344 703 610 415 104 0 0 0 0 0 0 0 0 0 0 0 0 0 0 0 0 0 0 0
347 384 423 458 420 449 588 643 823 882 707 639 666 889 1267 1719 1869 1877 1796 1437 1336 660 747 559 35 0 0 0 0 0 0 0 0 0 0 0 0 0 0 0 0 0 0
429 394 360 381 373 332 344 385 471 823 834 594 689 979 1218 1701 1912 1925 1848 1512 1558 1051 774 867 610 42 0 0 0 0 0 0 0 0 0 0 0 0 0 0 0 0 0
365 421 357 322 313 287 259 155 159 344 661 664 642 927 1167 1580 1897 1984 1871 1611 1635 1736 916 683 910 550 189 20 0 0 0 0 0 0 0 0 0 0 0 0 0 0 0
260 374 383 321 269 263 265 228 77 93 229 380 338 699 1058 1365 1796 1953 1889 1680 1627 1808 1801 825 729 935 693 246 92 28 0 0 0 0 0 0 0 0 0 0 0 0 0
314 324 295 269 253 284 295 273 235 199 188 238 286 407 705 927 1154 1662 1791 1728 1626 1816 1988 1842 750 870 916 593 426 100 7 0 0 0 0 0 0 0 0 0 0 0 0
353 337 358 308 255 286 338 301 289 321 313 347 456 551 630 747 900 1156 1345 1588 1689 1851 1763 2032 1311 711 867 907 702 456 103 1 0 0 0 0 0 0 0 0 0 0 0
367 379 460 368 338 305 368 366 401 413 431 509 654 842 981 1013 1167 1188 1124 1166 1577 1954 2012 2041 1903 869 665 843 977 743 239 36 0 0 0 0 0 0 0 0 0 0 0
480 502 545 496 433 386 424 524 620 606 687 713 762 921 1034 1174 1242 1305 1356 1417 1680 1968 2066 1794 1899 1774 777 554 810 913 515 54 0 0 0 0 0 0 0 0 0 0 0
584 620 638 623 554 519 563 602 716 725 746 853 820 1013 1115 1200 1232 1357 1458 1472 1565 1774 2031 1936 1628 1777 1590 917 627 832 852 61 23 0 0 0 0 0 0 0 0 0 0
576 626 652 693 686 684 714 737 785 798 902 879 946 1052 1154 1206 1292 1405 1479 1523 1540 1775 1960 2041 1774 1579 1851 1342 844 742 764 398 55 1 0 0 0 0 0 0 0 0 0
601 658 699 762 794 812 834 856 858 864 885 955 1015 1087 1150 1292 1321 1447 1513 1602 1669 1733 1870 1983 2072 1732 1645 1561 1152 663 625 527 82 63 0 0 0 0 0 0 0 0 0
655 727 735 769 850 950 875 892 943 987 1083 1101 1109 1177 1291 1293 1337 1424 1347 1504 1690 1762 1856 2012 2142 1986 1655 1389 1185 667 413 562 181 7 58 0 0 0 0 0 0 0 0
665 658 752 806 846 947 998 1017 1040 1081 1171 1262 1295 1318 1413 1348 1378 1378 1396 1349 1257 1525 1709 1895 1824 1809 1583 1325 1163 678 324 485 67 0 0 0 0 0 0 0 0 0 0
598 635 647 783 845 935 1062 1141 1227 1238 1232 1319 1353 1401 1460 1445 1318 1287 1376 1329 1291 1172 1229 1581 1463 1461 1393 1168 1152 830 348 564 2 0 0 0 0 0 0 0 0 0 0
687 737 779 800 813 887 968 1075 1176 1242 1286 1281 1294 1306 1444 1389 1476 1435 1531 1696 1898 1853 1674 1448 1611 1385 1778 1686 1403 836 336 544 0 0 0 0 0 0 0 0 0 0 0
736 745 775 830 857 878 915 1037 1156 1131 1217 1312 1423 1510 1519 1556 1593 1745 1939 2097 2357 2313 2164 2003 1629 1930 1701 1069 1090 587 393 679 1 0 0 0 0 0 0 0 0 0 0
1586 1483 1438 1393 1341 1309 1315 1309 1268 1219 1205 1250 1404 1611 1787 1893 2056 2183 2305 2306 2486 2545 2507 1987 2020 1497 1028 1084 1331 336 358 673 4 0 0 0 0 0 0 0 0 0 0
2988 2611 2517 2513 2495 2435 2342 2227 2148 2148 2157 2258 2386 2419 2512 2534 2565 2479 2358 2412 2520 2669 2763 2121 2417 1838 1431 1012 781 207 263 371 0 4 0 0 0 0 0 0 0 0 0
2828 3274 3425 3360 3244 3177 3037 2926 2914 2908 2915 2935 2934 2925 2900 2853 2783 2563 2203 2301 2345 2377 2436 2165 1959 1869 1435 1101 299 264 373 3 0 1 0 0 0 0 0 0 0 0 0
2076 2576 2796 2882 3044 3122 3306 3357 3257 3194 3166 3141 3107 3030 3034 3027 2864 2807 2653 2260 2320 2369 2211 1930 2054 1801 1249 721 245 357 297 0 0 0 0 1 0 0 0 0 0 0 0
454 744 1628 2322 2709 2683 2458 2440 2810 2990 2950 2804 2784 2764 2840 2787 2618 2565 2612 2484 2436 2351 2160 1744 1850 1514 1035 542 357 492 0 0 0 0 0 0 0 0 0 0 0 0 0
355 416 512 677 910 1573 1738 1805 2288 2690 2490 2344 2150 2161 2584 2577 2559 2609 2450 2269 2043 1691 1467 1635 1539 1298 773 447 455 144 2 0 0 0 0 0 0 0 0 0 0 0 0
176 230 290 427 536 620 895 1216 1709 1859 1957 2029 2044 2114 2500 2631 2536 2494 2293 1948 1508 1303 1096 1001 1237 1131 780 531 353 171 3 0 0 0 0 0 0 0 0 0 0 0 0
15 65 120 167 239 417 626 706 973 1183 1460 1742 1838 1978 2260 2559 2358 2191 1920 1424 865 556 637 615 816 860 693 224 183 7 0 0 0 0 0 0 0 0 0 0 0 0 0
0 0 2 19 57 266 342 610 775 1069 1605 1632 1719 1918 1972 1775 1907 1710 1266 690 606 453 515 436 621 664 287 256 18 26 0 0 0 0 0 0 0 0 0 0 0 0 0
CIN
-210 -193 -225 -248 -259 -242 -228 -217 -208 -225 -224 -174 -167 -116 -105 -80 -61 -53 -80 -112 -234 -173 -230 -297 0 0 0 0 0 0 0 0 0 0 0 0 0 0 0 0 0 0 0
-341 -221 -230 -245 -263 -290 -283 -279 -231 -215 -235 -226 -256 -329 -250 -128 -70 -64 -70 -107 -103 -117 -157 -192 -186 0 0 0 0 0 0 0 0 0 0 0 0 0 0 0 0 0 0
-365 -327 -270 -265 -281 -298 -340 -333 -332 -250 -231 -272 -396 -331 -259 -140 -81 -64 -69 -98 -73 -136 -110 -141 -178 -64 0 0 0 0 0 0 0 0 0 0 0 0 0 0 0 0 0
-459 -415 -397 -320 -323 -357 -356 -391 -435 -386 -295 -281 -447 -376 -303 -180 -109 -72 -72 -95 -64 -55 -170 -180 -107 -84 -90 -63 0 0 0 0 0 0 0 0 0 0 0 0 0 0 0
-554 -485 -487 -471 -402 -399 -354 -367 -449 -507 -455 -363 -537 -472 -361 -256 -164 -116 -99 -100 -81 -59 -41 -180 -168 -110 -100 -98 -66 -66 0 0 0 0 0 0 0 0 0 0 0 0 0
-321 -273 -424 -436 -432 -235 -385 -357 -407 -475 -520 -510 -516 -595 -490 -418 -359 -201 -143 -126 -119 -77 -34 -31 -194 -146 -97 -107 -94 -49 -63 0 0 0 0 0 0 0 0 0 0 0 0
-347 -264 -259 -273 -290 -264 -231 -243 -261 -272 -291 -623 -599 -576 -552 -522 -442 -362 -271 -195 -149 -102 -76 -21 -102 -209 -127 -96 -103 -104 -53 -13 0 0 0 0 0 0 0 0 0 0 0
-383 -305 -270 -312 -334 -329 -258 -411 -548 -424 -450 -590 -568 -528 -480 -447 -389 -345 -347 -302 -213 -99 -52 -27 -34 -172 -211 -145 -101 -103 -42 -43 0 0 0 0 0 0 0 0 0 0 0
-647 -630 -401 -631 -430 -488 -561 -514 -506 -525 -531 -537 -572 -522 -499 -482 -423 -367 -311 -284 -220 -134 -73 -86 -52 -41 -152 -166 -117 -91 -62 -47 0 0 0 0 0 0 0 0 0 0 0
-665 -682 -678 -279 -247 -588 -556 -519 -505 -515 -537 -519 -506 -530 -481 -452 -440 -391 -328 -290 -267 -201 -114 -91 -114 -65 -55 -135 -159 -110 -57 -76 -94 0 0 0 0 0 0 0 0 0 0
-706 -681 -679 -674 -653 -614 -542 -502 -492 -501 -485 -471 -480 -471 -498 -480 -437 -368 -331 -295 -278 -217 -180 -139 -137 -106 -31 -72 -115 -121 -96 -85 -46 -18 0 0 0 0 0 0 0 0 0
-641 -652 -638 -625 -584 -547 -531 -490 -441 -386 -417 -484 -458 -453 -454 -501 -454 -372 -314 -319 -322 -289 -249 -161 -105 -110 -69 -37 -58 -102 -110 -56 -48 -44 0 0 0 0 0 0 0 0 0
-503 -422 -362 -539 -513 -479 -492 -471 -369 -411 -437 -452 -469 -500 -498 -477 -471 -365 -412 -429 -319 -291 -260 -175 -97 -66 -79 -116 -134 -118 -131 -48 -39 -30 -26 0 0 0 0 0 0 0 0
-232 -312 -401 -395 -391 -483 -475 -490 -461 -450 -447 -439 -457 -493 -468 -497 -487 -428 -377 -384 -384 -338 -253 -189 -199 -258 -174 -181 -112 -155 -156 -62 -55 0 0 0 0 0 0 0 0 0 0
-310 -271 -337 -519 -443 -469 -478 -497 -505 -525 -522 -505 -527 -498 -485 -503 -512 -429 -371 -395 -385 -360 -338 -242 -192 -124 -104 -90 -91 -77 -124 -62 -61 0 0 0 0 0 0 0 0 0 0
-352 -329 -322 -301 -331 -458 -494 -505 -440 -451 -463 -490 -467 -497 -512 -506 -465 -404 -339 -293 -242 -198 -209 -252 -160 -147 -41 -19 -27 -22 -91 -40 0 0 0 0 0 0 0 0 0 0 0
-269 -410 -442 -427 -391 -389 -492 -521 -505 -493 -476 -466 -482 -456 -448 -452 -404 -231 -203 -195 -160 -139 -165 -180 -166 -33 -26 -57 -24 -54 -83 -17 -79 0 0 0 0 0 0 0 0 0 0
-149 -156 -191 -183 -189 -166 -131 -128 -152 -453 -290 -161 -161 -161 -177 -205 -228 -211 -172 -167 -145 -90 -82 -122 -77 -76 -75 -44 -1 -107 -68 -16 -138 0 0 0 0 0 0 0 0 0 0
-114 -148 -136 -154 -155 -145 -149 -140 -140 -156 -156 -170 -175 -172 -166 -183 -181 -179 -184 -136 -96 -72 -31 -76 -19 -33 -25 -57 -56 -126 -79 -64 0 -12 0 0 0 0 0 0 0 0 0
-59 -95 -96 -122 -176 -140 -108 -108 -102 -117 -131 -144 -148 -124 -113 -121 -119 -130 -195 -147 -120 -65 -33 -48 -40 -32 -24 -34 -133 -122 -75 -160 0 -31 0 0 0 0 0 0 0 0 0
-77 -109 -100 -69 -151 -120 -52 -26 -22 -34 -53 -74 -75 -71 -58 -52 -57 -59 -68 -92 -75 -52 -48 -53 -25 -27 -59 -84 -177 -101 -65 0 0 0 0 -3 0 0 0 0 0 0 0
-455 -320 -205 -114 -94 -85 -87 -83 -43 -25 -35 -58 -66 -70 -50 -47 -46 -47 -42 -39 -34 -28 -26 -41 -11 -50 -83 -102 -128 -48 0 0 0 0 0 0 0 0 0 0 0 0 0
-405 -418 -365 -316 -282 -152 -121 -109 -59 -37 -37 -49 -85 -80 -36 -24 -18 -19 -43 -46 -58 -81 -88 -35 -32 -50 -85 -111 -76 -123 -67 0 0 0 0 0 0 0 0 0 0 0 0
-421 -431 -374 -325 -305 -285 -198 -121 -64 -54 -44 -37 -31 -29 -17 -10 -6 -16 -28 -62 -111 -132 -137 -123 -69 -58 -60 -77 -93 -62 -82 0 0 0 -2 -1 0 0 0 0 0 0 0
-324 -316 -291 -255 -238 -198 -153 -143 -132 -105 -71 -20 -16 -8 -1 -1 -4 -4 -20 -77 -175 -247 -218 -200 -135 -82 -67 -138 -85 -133 0 0 0 0 0 0 0 0 0 0 0 0 0
0 -2 0 -180 -271 -165 -152 -103 -78 -50 -8 -4 -3 0 0 -2 0 -5 -42 -134 -152 -205 -189 -204 -132 -74 -103 -72 -139 -103 0 0 0 0 0 0 0 0 0 0 0 0 0
Wind_Speed
9 9 8 6 7 7 5 5 3 3 2 0 3 6 8 11 13 16 17 21 24 23 25 31 nan nan nan nan nan nan nan nan nan nan nan nan nan nan nan nan nan nan nan
10 10 7 8 6 6 6 4 3 1 3 1 2 6 6 8 11 16 20 24 26 29 32 34 nan nan nan nan nan nan nan nan nan nan nan nan nan nan nan nan nan nan nan
12 10 10 8 6 5 6 4 4 3 4 3 2 6 5 8 14 16 21 24 26 29 33 35 37 nan nan nan nan nan nan nan nan nan nan nan nan nan nan nan nan nan nan
14 11 9 8 6 5 6 6 6 6 6 7 5 5 3 11 14 16 19 21 23 28 31 35 38 42 43 nan nan nan nan nan nan nan nan nan nan nan nan nan nan nan nan
16 12 8 9 10 12 11 9 nan nan 7 9 8 1 4 10 10 14 18 21 23 26 30 34 38 43 46 48 nan nan nan nan nan nan nan nan nan nan nan nan nan nan nan
18 13 14 13 14 13 12 11 11 9 9 10 10 1 4 6 10 17 20 23 29 29 30 33 35 41 43 47 50 52 nan nan nan nan nan nan nan nan nan nan nan nan nan
22 19 17 17 15 13 14 13 11 9 12 7 9 5 4 3 9 16 24 22 29 32 33 40 39 43 46 47 45 47 46 nan nan nan nan nan nan nan nan nan nan nan nan
25 22 21 18 16 16 16 13 13 13 9 7 10 7 4 4 10 16 22 22 26 33 40 45 49 54 56 54 52 40 37 nan nan nan nan nan nan nan nan nan nan nan nan
28 25 23 20 18 18 16 13 16 16 12 8 12 12 5 3 12 16 20 21 27 31 37 44 50 52 60 65 62 58 41 nan nan nan nan nan nan nan nan nan nan nan nan
28 25 23 21 20 18 16 15 17 17 13 11 10 9 4 3 13 18 24 22 26 32 35 41 52 53 58 67 66 60 54 nan nan nan nan nan nan nan nan nan nan nan nan
29 29 26 24 22 19 19 19 21 19 17 10 8 8 1 6 11 18 27 25 28 39 43 46 50 62 65 69 67 62 59 45 nan nan nan nan nan nan nan nan nan nan nan
33 33 28 26 25 23 23 23 22 22 16 13 11 9 6 9 16 20 28 29 32 33 37 42 49 59 62 69 71 66 69 59 nan nan nan nan nan nan nan nan nan nan nan
35 33 34 33 30 27 28 26 26 24 18 17 14 10 13 18 20 32 34 33 37 44 41 46 56 70 73 75 75 66 70 57 54 nan nan nan nan nan nan nan nan nan nan
31 33 36 34 32 29 30 29 25 23 20 19 16 16 19 22 23 25 34 39 37 42 51 57 68 70 67 67 71 69 67 71 nan nan nan nan nan nan nan nan nan nan nan
33 34 33 33 31 30 27 26 23 20 20 23 18 24 24 21 22 29 37 40 46 48 52 51 48 56 61 64 65 65 66 73 nan nan nan nan nan nan nan nan nan nan nan
32 35 35 34 33 31 30 28 27 28 25 21 26 25 26 20 34 36 42 48 52 58 50 53 57 62 64 65 67 68 67 66 nan nan nan nan nan nan nan nan nan nan nan
30 32 33 31 30 27 24 26 27 35 35 29 27 22 27 27 36 40 45 48 56 61 49 51 58 61 65 68 69 66 68 64 nan nan nan nan nan nan nan nan nan nan nan
32 29 30 28 26 26 26 24 26 27 29 30 29 26 27 28 36 43 61 61 51 51 53 54 57 60 65 67 66 64 62 58 nan nan nan nan nan nan nan nan nan nan nan
40 37 32 34 31 29 29 27 26 28 30 35 38 39 50 55 56 57 57 51 54 54 56 57 58 62 62 63 60 61 59 58 nan nan nan nan nan nan nan nan nan nan nan
45 47 43 38 42 39 35 35 35 35 36 38 38 39 51 51 52 53 51 53 55 56 58 59 60 57 58 58 60 58 58 nan nan nan nan nan nan nan nan nan nan nan nan
49 57 60 56 52 52 44 41 41 42 44 45 43 46 51 52 53 56 57 57 57 57 57 58 55 53 52 55 57 56 58 nan nan nan nan nan nan nan nan nan nan nan nan
51 49 57 58 63 61 55 47 47 46 50 49 48 55 62 56 59 62 61 59 57 56 56 54 49 48 49 52 54 54 nan nan nan nan nan nan nan nan nan nan nan nan nan
58 53 56 54 60 63 63 58 55 56 57 55 55 62 63 61 58 60 61 60 58 54 54 50 48 46 49 53 52 54 nan nan nan nan nan nan nan nan nan nan nan nan nan
60 56 52 52 60 66 64 59 53 55 61 62 64 66 64 61 55 55 57 57 56 53 51 50 49 52 53 54 50 47 nan nan nan nan nan nan nan nan nan nan nan nan nan
nan nan 57 54 55 60 62 63 62 59 54 53 57 57 56 54 53 54 55 55 57 57 54 54 51 54 55 56 51 nan nan nan nan nan nan nan nan nan nan nan nan nan nan
nan nan nan nan nan 62 64 63 61 61 59 57 57 57 56 56 52 56 56 56 55 55 56 53 50 53 54 53 nan nan nan nan nan nan nan nan nan nan nan nan nan nan nan
Wind_Direction
191 181 180 167 143 136 132 128 145 189 193 41 9 354 10 12 18 20 21 21 23 22 21 19 nan nan nan nan nan nan nan nan nan nan nan nan nan nan nan nan nan nan nan
200 197 186 193 180 147 132 153 215 249 225 222 348 1 13 16 13 17 22 26 23 20 18 14 nan nan nan nan nan nan nan nan nan nan nan nan nan nan nan nan nan nan nan
218 211 199 194 190 143 139 171 250 280 294 268 330 3 4 25 23 31 30 27 23 23 19 15 11 nan nan nan nan nan nan nan nan nan nan nan nan nan nan nan nan nan nan
235 232 216 204 190 190 194 212 245 265 288 284 327 3 22 41 39 34 31 22 14 20 13 9 1 0 0 nan nan nan nan nan nan nan nan nan nan nan nan nan nan nan nan
235 236 228 219 214 222 228 232 nan nan 277 292 310 348 53 57 41 25 23 12 2 6 2 358 356 0 4 356 nan nan nan nan nan nan nan nan nan nan nan nan nan nan nan
236 232 234 231 230 239 240 237 250 260 273 291 305 201 90 80 24 13 7 0 353 354 351 349 351 357 356 353 357 352 nan nan nan nan nan nan nan nan nan nan nan nan nan
238 231 232 239 241 242 244 243 248 263 269 282 293 213 163 102 359 3 3 351 347 339 340 342 352 352 349 343 350 350 351 nan nan nan nan nan nan nan nan nan nan nan nan
235 236 238 241 250 246 247 247 247 258 269 282 280 247 225 224 324 351 354 351 336 336 339 342 345 345 348 340 334 344 355 nan nan nan nan nan nan nan nan nan nan nan nan
242 240 241 247 249 252 255 254 248 253 248 267 254 271 274 255 320 341 336 325 335 339 332 334 337 338 337 337 337 343 355 nan nan nan nan nan nan nan nan nan nan nan nan
244 246 250 257 257 256 255 251 248 246 241 248 254 267 304 340 327 337 333 323 325 312 322 330 335 335 335 333 332 329 334 nan nan nan nan nan nan nan nan nan nan nan nan
244 240 245 259 269 263 251 244 249 247 239 239 231 228 287 329 324 331 322 316 317 317 322 323 325 331 330 330 325 327 335 333 nan nan nan nan nan nan nan nan nan nan nan
240 235 238 252 253 247 251 243 247 248 240 225 229 193 223 283 300 308 314 323 303 304 311 316 319 321 323 320 318 319 325 321 nan nan nan nan nan nan nan nan nan nan nan
237 233 234 240 245 243 245 243 238 242 229 219 228 217 250 269 284 294 305 318 322 322 318 320 311 316 316 319 325 334 325 331 329 nan nan nan nan nan nan nan nan nan nan
236 234 236 241 242 241 240 244 241 239 226 225 221 235 253 267 284 293 290 299 318 315 307 305 319 323 340 332 332 332 330 328 nan nan nan nan nan nan nan nan nan nan nan
233 232 233 235 241 241 238 242 245 236 229 232 233 243 255 268 283 294 297 297 299 303 302 309 321 325 324 325 323 329 330 331 nan nan nan nan nan nan nan nan nan nan nan
242 237 236 236 236 235 236 231 228 221 224 230 240 255 257 271 293 306 301 306 306 310 312 322 322 319 321 320 323 324 324 329 nan nan nan nan nan nan nan nan nan nan nan
239 244 244 244 243 247 247 244 234 236 228 231 248 264 274 279 298 303 309 292 293 303 306 318 318 318 316 314 317 320 324 330 nan nan nan nan nan nan nan nan nan nan nan
232 242 244 247 244 241 240 236 240 241 243 251 261 265 273 282 290 290 282 290 292 300 313 310 314 315 313 312 316 318 321 319 nan nan nan nan nan nan nan nan nan nan nan
226 235 232 243 237 233 235 238 238 241 243 248 255 260 258 257 266 277 293 293 296 300 302 303 309 314 312 313 317 315 318 316 nan nan nan nan nan nan nan nan nan nan nan
225 232 230 234 246 240 234 233 236 243 249 253 256 258 265 271 277 282 287 288 289 294 299 303 308 311 310 313 312 313 317 nan nan nan nan nan nan nan nan nan nan nan nan
222 234 240 234 238 244 239 239 241 244 249 251 254 261 275 274 276 279 283 287 289 294 299 303 307 308 311 310 311 316 319 nan nan nan nan nan nan nan nan nan nan nan nan
240 248 248 237 240 232 239 242 248 252 253 253 257 260 272 272 274 279 283 287 290 294 298 300 304 309 310 311 313 315 nan nan nan nan nan nan nan nan nan nan nan nan nan
241 243 240 237 231 228 234 238 247 257 261 262 263 266 271 275 278 281 283 287 291 295 296 297 302 307 307 309 314 317 nan nan nan nan nan nan nan nan nan nan nan nan nan
239 239 234 236 237 236 241 244 250 256 259 260 264 269 272 275 278 280 282 285 290 294 295 298 306 311 310 311 314 319 nan nan nan nan nan nan nan nan nan nan nan nan nan
nan nan 250 248 248 247 248 252 251 253 261 265 267 269 268 271 276 280 281 287 289 293 297 300 303 309 312 316 318 nan nan nan nan nan nan nan nan nan nan nan nan nan nan
nan nan nan nan nan 251 252 248 249 249 251 258 262 268 274 274 275 279 282 285 289 292 295 296 303 309 311 310 nan nan nan nan nan nan nan nan nan nan nan nan nan nan nan